Temperature
18 18 18 18 18 18 18 18 18 18 18 18 18 18 18 18 18 18 18 18 18 18 18 17 17 17 17 17 17 17 17 17 17 17 16 16 16 16 16 16 16 16 16
18 18 18 18 18 18 18 18 18 18 18 18 18 18 18 18 18 18 18 18 18 18 17 17 17 17 17 17 17 17 17 17 17 17 16 16 16 16 16 16 16 16 16
18 18 18 18 18 18 18 18 18 18 18 18 18 18 18 18 18 18 18 18 18 18 17 17 17 17 17 17 17 17 17 17 17 17 16 16 16 16 16 16 16 16 16
18 18 18 18 18 18 18 18 18 18 18 18 18 18 18 18 18 18 18 18 18 18 18 17 17 17 17 17 17 17 17 17 17 17 16 16 16 16 16 16 16 16 16
18 18 18 18 18 18 18 18 18 18 18 18 18 18 18 18 18 18 18 18 18 18 18 17 17 17 17 17 17 17 17 17 17 17 16 16 16 16 16 16 16 16 15
19 18 18 18 18 18 18 18 18 18 18 18 18 18 18 18 18 18 18 18 18 18 18 17 17 17 17 17 17 17 17 17 17 17 16 16 16 16 16 16 16 16 15
19 19 18 18 18 18 18 18 18 18 18 18 18 18 18 18 18 18 18 18 18 18 18 17 17 17 17 17 17 17 17 17 17 17 16 16 16 16 16 16 16 16 15
19 19 19 18 18 18 18 18 18 18 18 18 18 17 18 18 18 18 18 18 18 18 18 18 17 17 17 17 17 17 17 17 17 16 16 16 16 16 16 16 16 16 15
19 19 19 18 18 18 18 18 18 18 18 18 18 17 17 18 18 18 18 18 18 18 18 18 17 17 17 17 17 17 17 17 17 16 16 16 16 16 16 16 16 16 15
19 19 18 18 18 18 18 18 18 18 18 18 18 17 17 17 17 18 18 18 18 18 18 17 17 17 17 17 17 17 17 17 17 16 16 16 16 16 16 16 16 16 16
19 18 18 18 18 18 18 18 18 18 18 18 18 18 17 17 17 17 17 18 18 18 18 17 17 17 17 17 17 17 17 17 16 16 16 16 16 16 16 16 16 15 15
19 19 18 18 18 18 18 18 18 18 18 17 17 17 17 17 17 17 17 17 17 18 17 17 17 17 17 17 17 17 16 16 16 16 16 16 16 16 16 16 16 15 15
19 19 19 18 18 18 18 18 18 18 18 17 17 17 17 17 17 17 17 17 17 17 17 17 17 17 17 17 16 16 16 16 16 16 16 16 16 15 15 15 15 15 15
19 19 19 18 18 18 18 18 18 18 18 17 17 17 17 17 17 17 17 17 17 17 17 16 16 16 16 16 16 16 16 16 16 16 15 15 15 15 15 15 15 15 15
19 18 18 18 18 18 18 18 18 17 17 17 17 17 17 17 17 17 17 16 16 16 16 16 16 16 16 16 16 15 15 15 15 15 15 15 15 15 15 15 15 15 14
18 18 18 18 18 18 18 18 17 17 17 17 17 17 17 16 16 16 16 16 16 16 15 16 15 15 15 15 15 15 15 15 15 15 15 14 14 14 14 14 14 14 14
18 18 18 18 18 17 17 17 17 17 17 17 17 17 17 16 16 16 16 16 16 16 15 15 15 15 15 15 15 15 14 14 14 14 14 14 14 14 14 14 14 14 13
18 18 18 17 17 17 17 17 17 17 17 17 17 16 16 16 16 16 16 16 16 15 15 15 14 14 14 14 14 14 14 14 14 14 13 13 14 14 13 13 13 13 13
18 17 17 17 17 17 17 17 17 16 16 16 16 16 16 16 16 16 16 15 15 15 15 14 14 14 14 14 14 13 13 13 13 13 13 13 13 13 13 13 12 12 12
17 17 17 17 17 17 16 16 16 16 16 16 16 16 16 15 15 15 15 15 15 14 14 14 14 13 13 13 13 13 13 13 12 12 12 12 12 12 12 12 12 11 11
17 17 16 16 16 16 16 16 16 16 16 16 15 15 15 15 15 15 15 14 14 14 14 13 13 13 13 13 12 12 12 12 12 12 12 11 11 11 11 11 11 11 11
16 16 16 16 16 16 16 16 16 15 15 15 15 15 14 14 14 14 14 14 14 13 13 13 12 12 12 12 12 12 12 11 11 11 11 11 11 10 10 10 10 10 10
16 16 16 16 15 15 15 15 15 15 15 15 14 14 14 14 14 13 13 13 13 13 12 12 12 12 12 11 11 11 11 11 10 10 10 10 10 10 10 9 9 9 9
16 15 15 15 15 15 15 14 14 15 14 14 14 14 13 13 13 13 13 13 12 12 12 12 11 11 11 11 11 11 11 10 10 10 10 10 9 9 9 9 9 9 9
15 15 15 14 14 14 14 14 14 14 14 13 13 13 13 13 12 12 12 12 12 11 11 11 11 11 11 10 10 10 10 10 10 10 9 9 9 9 9 9 8 8 8
15 14 14 14 14 14 13 13 13 14 13 13 13 12 12 12 12 11 11 11 11 11 11 10 10 10 10 10 10 10 10 10 9 9 9 9 9 9 8 8 8 8 8
Wind_Speed
5 6 5 6 6 6 5 4 4 3 2 1 2 5 6 10 11 11 12 15 15 14 14 13 13 12 12 11 10 11 10 10 10 9 9 9 9 8 9 9 8 8 8
8 6 5 5 6 7 7 5 4 3 2 1 1 4 6 8 11 11 12 14 15 15 15 14 14 13 13 12 12 12 11 11 11 11 11 10 10 10 9 9 9 9 9
10 8 5 4 6 7 7 4 2 1 1 1 1 2 5 7 9 11 13 13 14 15 16 15 15 15 14 14 14 13 13 12 12 12 12 12 12 12 11 11 11 11 10
12 8 5 4 6 6 5 3 2 1 1 1 1 2 2 4 7 10 12 13 14 14 16 17 17 17 16 16 15 15 14 14 14 14 14 14 14 14 13 13 13 13 12
11 8 5 5 6 4 3 3 2 2 2 2 2 3 2 3 5 8 9 12 14 15 15 16 18 18 18 17 17 17 17 17 16 16 16 15 15 15 15 15 14 14 14
11 9 5 5 5 3 2 2 2 2 2 2 2 2 3 4 4 5 7 10 13 15 16 15 15 16 19 19 19 19 18 18 18 18 18 17 17 17 17 17 16 16 16
10 8 4 4 4 3 4 4 3 2 2 1 0 3 4 3 3 4 5 5 7 11 12 14 14 14 14 18 20 20 20 19 19 19 19 19 18 18 18 18 17 17 17
10 8 6 4 4 3 4 3 3 2 2 2 2 0 3 4 3 3 3 4 5 6 8 12 13 14 13 13 15 18 18 18 19 19 19 19 19 19 18 18 19 19 19
10 8 7 6 5 5 4 4 4 4 3 2 2 3 2 3 3 3 3 3 3 3 4 6 9 11 12 12 12 14 17 18 17 17 18 18 18 18 18 18 19 19 20
9 9 8 7 6 4 5 5 4 4 4 3 2 3 3 4 2 3 3 2 2 3 3 4 6 9 11 11 11 13 14 16 17 17 17 18 18 18 17 17 17 17 17
7 8 8 6 5 4 5 5 4 4 4 4 3 3 2 2 3 3 4 4 2 2 2 3 4 5 8 9 9 10 11 13 15 16 16 16 16 16 16 16 16 16 15
4 5 6 6 5 5 5 5 5 5 4 4 4 3 3 3 3 3 4 4 3 3 2 2 2 3 5 6 7 8 8 8 9 11 12 13 13 13 13 14 14 14 14
4 5 5 5 5 5 5 4 4 5 5 4 5 4 4 4 3 3 3 3 3 3 1 1 2 3 4 5 6 7 7 8 7 8 8 9 10 10 10 11 11 12 12
5 5 6 6 6 5 5 4 4 5 4 5 5 4 3 3 3 3 3 3 2 2 2 2 1 2 3 4 4 6 5 6 7 7 7 7 7 8 8 8 9 9 8
5 5 5 5 5 5 5 4 3 4 4 4 4 3 3 3 3 3 2 3 3 2 3 2 2 2 2 2 3 3 3 4 5 7 8 7 7 7 6 6 6 5 5
4 4 4 5 5 4 4 3 2 2 2 2 2 3 3 3 2 2 2 2 3 3 2 2 2 2 1 1 1 1 0 1 2 4 6 6 6 5 5 4 4 4 4
4 4 4 4 4 3 3 3 2 2 2 1 1 1 2 1 1 1 1 1 2 2 2 2 1 2 2 2 3 2 2 2 2 2 0 1 3 3 3 2 3 2 2
3 3 3 3 3 3 2 3 3 2 1 1 1 1 1 0 1 0 0 0 1 1 2 1 1 2 2 2 2 2 3 4 5 6 5 3 2 2 2 2 3 3 3
2 2 3 3 3 2 2 2 2 2 1 1 1 1 0 2 1 1 1 1 1 2 2 2 0 1 1 2 2 3 4 4 5 6 7 7 7 6 5 5 4 3 3
4 4 4 4 3 3 2 2 2 2 2 2 2 2 2 2 2 2 2 2 3 3 3 3 2 2 1 1 2 2 3 3 3 5 6 7 8 8 7 6 5 4 3
5 4 5 4 3 3 2 2 2 3 3 3 4 4 4 6 5 3 3 2 3 3 3 3 2 2 2 2 2 1 2 2 2 3 3 4 5 6 7 6 6 5 4
5 5 5 5 5 3 4 5 5 4 4 5 4 4 6 7 9 10 10 8 6 5 3 3 2 1 1 1 1 1 2 2 2 2 2 2 3 3 4 5 6 7 6
5 6 5 5 5 5 6 6 7 5 5 5 5 5 5 6 7 6 9 11 10 10 7 4 3 1 0 1 1 2 2 2 1 1 1 2 3 3 3 6 7 7 7
6 6 6 5 5 5 6 7 8 7 7 6 5 5 6 5 6 6 7 8 7 6 6 4 3 2 2 1 1 2 2 2 2 3 2 1 2 2 3 5 7 8 8
7 6 5 5 5 5 7 8 8 6 6 6 6 6 6 6 7 8 8 7 7 6 10 12 10 10 10 9 6 4 4 3 3 3 3 2 1 2 2 3 6 7 8
7 6 6 6 5 5 7 8 7 5 6 6 6 6 8 8 8 8 6 6 6 4 4 6 8 9 10 10 10 5 3 3 2 2 3 3 2 2 2 2 3 5 5
Wind_Direction
166 170 178 187 197 196 196 213 231 242 245 261 176 164 158 161 166 171 179 182 182 183 183 185 185 186 187 189 192 192 191 190 188 188 188 188 188 188 187 186 187 186 185
170 170 173 186 197 199 201 207 214 207 207 211 175 169 175 169 177 179 185 189 192 193 195 195 195 197 198 199 201 201 203 202 200 200 200 201 202 203 202 201 199 200 201
174 173 173 184 199 203 200 199 204 178 198 233 235 188 181 189 187 188 191 195 199 203 204 204 205 206 207 208 208 209 211 211 210 211 210 210 210 211 211 211 210 210 210
178 173 175 192 197 188 186 175 180 164 218 235 240 238 203 197 201 201 199 201 202 206 211 214 214 213 214 216 216 216 218 219 218 218 218 218 218 218 218 218 218 219 219
179 173 180 197 192 176 184 201 183 173 200 235 238 234 235 225 214 214 208 209 209 211 212 218 220 221 222 223 223 223 222 223 223 224 224 225 226 225 224 224 224 225 225
183 177 184 196 186 169 186 195 187 190 198 219 255 267 259 247 231 223 218 215 215 216 216 217 220 227 230 230 230 229 228 228 227 227 229 229 230 230 229 229 229 229 230
187 181 184 186 177 179 189 185 180 197 220 189 66 321 309 280 252 242 226 214 214 216 216 218 219 223 233 236 235 234 233 233 231 230 231 230 231 232 232 232 233 233 234
193 191 181 188 190 187 194 193 180 180 229 175 155 133 324 326 305 262 245 224 219 216 220 223 220 222 229 233 237 237 237 237 237 236 235 235 234 234 234 234 235 236 236
200 200 194 190 197 190 198 203 191 182 210 237 181 162 181 244 294 308 276 247 229 220 227 225 223 227 231 235 240 243 240 238 240 241 238 236 236 237 236 236 237 238 238
204 206 202 197 198 198 201 211 200 192 189 228 241 212 196 181 198 294 311 288 257 238 230 231 229 227 230 233 236 241 241 240 240 243 242 239 237 237 237 237 238 239 240
207 207 203 198 198 201 209 214 208 203 197 207 216 220 226 216 199 204 270 293 298 261 231 229 232 228 231 232 231 237 242 243 242 241 241 240 239 238 238 239 241 241 243
208 207 202 200 205 205 209 213 215 214 214 215 217 208 200 205 211 203 232 259 271 276 271 244 231 227 230 231 232 230 235 240 241 241 241 242 242 242 240 241 242 244 247
211 217 213 209 211 213 215 212 218 226 220 221 224 224 219 220 208 200 215 244 256 276 285 271 247 243 240 238 236 227 229 228 230 233 237 242 245 247 246 245 245 247 249
215 215 212 214 216 213 218 210 222 230 228 228 235 228 228 233 218 206 201 205 255 287 284 271 295 253 243 239 236 227 231 225 222 222 224 231 239 244 246 245 244 241 243
212 209 209 215 217 213 213 206 223 234 228 225 229 229 234 239 229 223 206 194 196 240 271 272 284 288 254 238 229 220 218 217 220 225 225 225 228 232 234 233 232 227 229
204 194 205 210 212 210 202 196 206 217 199 220 218 225 238 241 226 220 218 210 194 202 241 269 271 294 325 11 19 98 130 225 232 235 228 223 221 221 217 211 209 215 219
190 187 197 198 195 197 189 176 189 189 183 223 236 207 232 213 202 235 233 216 199 178 219 278 322 338 1 37 37 43 36 40 38 25 325 220 207 199 192 189 191 191 194
179 180 176 169 171 170 165 167 177 183 182 190 228 164 233 162 92 48 49 129 178 163 179 217 332 2 19 28 38 44 50 58 58 53 51 56 80 100 107 119 121 123 119
133 127 132 129 134 136 135 151 156 154 143 143 132 111 83 96 92 80 89 85 88 90 111 136 353 10 16 25 33 39 53 53 59 62 63 65 71 72 75 79 89 99 101
110 102 102 113 125 128 127 135 137 136 112 96 89 90 84 89 113 117 98 95 100 92 87 93 73 34 23 3 48 51 37 27 42 54 58 63 64 62 61 62 65 68 78
103 100 97 96 103 110 111 120 125 130 114 92 70 63 69 75 75 83 90 94 104 102 96 95 83 59 36 38 28 5 48 33 37 44 47 48 55 53 47 51 54 57 68
93 88 86 88 83 89 90 98 106 100 96 95 84 70 69 67 69 69 70 72 84 102 107 99 85 77 11 350 11 64 87 61 25 3 42 22 35 31 31 48 48 50 52
94 88 84 85 82 73 79 92 100 98 92 92 91 86 81 69 64 74 68 63 61 67 84 109 100 80 31 309 84 76 77 72 65 321 52 20 9 15 15 32 37 39 39
96 90 86 84 84 76 85 95 95 89 89 86 83 86 90 75 70 78 79 67 58 52 61 75 94 68 51 46 98 120 117 83 50 26 50 45 355 355 2 22 28 29 30
92 87 86 83 84 75 83 92 98 93 88 78 74 78 86 83 71 79 84 78 64 48 55 60 61 58 58 62 77 76 62 71 45 0 11 53 9 4 1 360 18 23 28
96 91 80 72 76 75 82 88 99 99 93 84 73 64 70 78 74 74 83 86 78 55 47 43 42 43 46 50 57 68 85 87 77 14 347 29 15 36 23 344 353 5 15
Height
1576 1577 1578 1579 1580 1581 1582 1583 1584 1585 1585 1585 1585 1586 1586 1586 1586 1586 1586 1586 1586 1586 1586 1586 1586 1586 1587 1587 1587 1588 1588 1588 1588 1589 1589 1590 1590 1590 1590 1591 1591 1592 1592
1576 1577 1578 1580 1580 1582 1583 1583 1584 1585 1585 1586 1586 1586 1586 1586 1586 1586 1586 1586 1586 1586 1586 1586 1586 1586 1586 1586 1587 1587 1587 1587 1588 1588 1589 1589 1589 1589 1590 1590 1590 1591 1591
1576 1577 1578 1579 1580 1581 1582 1583 1584 1585 1585 1586 1586 1586 1586 1586 1586 1586 1586 1586 1586 1586 1586 1586 1586 1586 1586 1586 1586 1586 1586 1586 1587 1587 1587 1588 1588 1588 1589 1589 1589 1590 1590
1576 1577 1578 1579 1580 1581 1582 1583 1583 1584 1584 1585 1585 1585 1585 1585 1585 1585 1585 1585 1585 1585 1585 1585 1585 1585 1584 1585 1585 1585 1585 1585 1585 1585 1586 1586 1586 1586 1587 1587 1587 1588 1588
1575 1576 1577 1578 1579 1580 1581 1582 1583 1583 1583 1584 1584 1584 1584 1584 1584 1584 1584 1584 1583 1583 1583 1583 1583 1583 1583 1583 1583 1583 1583 1583 1583 1583 1584 1584 1584 1584 1585 1585 1585 1586 1586
1575 1576 1577 1577 1578 1579 1580 1581 1582 1582 1582 1583 1583 1582 1582 1582 1582 1582 1582 1581 1581 1581 1581 1581 1581 1581 1581 1581 1581 1581 1581 1581 1581 1581 1581 1581 1581 1582 1582 1582 1583 1583 1583
1574 1574 1575 1576 1577 1578 1579 1579 1580 1581 1581 1581 1581 1581 1580 1580 1579 1579 1579 1579 1579 1579 1579 1579 1579 1578 1578 1579 1579 1579 1578 1578 1578 1578 1578 1579 1579 1579 1579 1579 1580 1580 1580
1572 1573 1573 1574 1575 1576 1577 1578 1578 1579 1579 1579 1579 1579 1578 1578 1577 1577 1577 1577 1576 1576 1576 1576 1576 1576 1576 1576 1576 1576 1576 1575 1575 1575 1575 1575 1576 1576 1576 1576 1576 1577 1577
1570 1570 1571 1572 1573 1574 1575 1575 1576 1576 1577 1577 1577 1577 1576 1575 1574 1574 1574 1574 1574 1574 1573 1573 1573 1572 1573 1573 1573 1573 1572 1572 1572 1572 1572 1572 1572 1572 1572 1572 1572 1573 1573
1567 1568 1569 1570 1571 1571 1572 1573 1573 1574 1574 1574 1574 1574 1575 1574 1573 1571 1571 1571 1571 1571 1570 1570 1569 1569 1569 1569 1569 1569 1569 1568 1568 1568 1568 1568 1568 1568 1568 1568 1568 1569 1569
1565 1565 1566 1567 1568 1569 1569 1570 1570 1571 1571 1571 1571 1571 1571 1571 1571 1570 1568 1568 1568 1568 1567 1567 1566 1565 1565 1565 1565 1565 1565 1565 1564 1564 1564 1564 1564 1564 1564 1564 1564 1564 1564
1562 1563 1563 1564 1565 1566 1566 1567 1567 1567 1567 1568 1568 1568 1568 1568 1567 1567 1566 1565 1564 1564 1564 1563 1563 1562 1562 1561 1561 1561 1561 1561 1561 1560 1560 1560 1560 1560 1560 1560 1560 1560 1560
1559 1560 1561 1561 1562 1562 1563 1563 1563 1563 1564 1564 1564 1564 1564 1564 1564 1563 1563 1562 1561 1561 1560 1560 1559 1559 1558 1558 1557 1557 1557 1557 1556 1556 1556 1556 1556 1556 1556 1555 1555 1555 1555
1556 1557 1557 1558 1558 1559 1559 1559 1560 1560 1560 1560 1560 1560 1560 1560 1560 1560 1559 1559 1558 1557 1557 1556 1556 1555 1555 1554 1554 1554 1553 1553 1553 1553 1552 1552 1551 1551 1551 1551 1551 1551 1550
1553 1553 1553 1554 1554 1555 1555 1556 1556 1556 1556 1556 1556 1555 1555 1555 1555 1556 1556 1556 1556 1554 1553 1552 1552 1552 1551 1550 1550 1550 1550 1550 1549 1549 1548 1548 1548 1548 1547 1547 1547 1546 1546
1549 1550 1550 1550 1551 1551 1552 1552 1552 1552 1552 1552 1551 1551 1551 1551 1551 1552 1552 1552 1551 1551 1550 1549 1549 1549 1548 1548 1547 1547 1547 1547 1546 1545 1545 1544 1544 1544 1544 1543 1543 1542 1542
1547 1547 1547 1547 1547 1548 1548 1549 1549 1549 1549 1549 1548 1548 1548 1548 1548 1548 1548 1548 1548 1548 1547 1547 1547 1546 1546 1545 1545 1544 1544 1543 1543 1542 1542 1541 1541 1541 1540 1539 1539 1539 1538
1544 1544 1545 1545 1545 1545 1546 1546 1546 1546 1546 1546 1546 1546 1545 1546 1545 1545 1545 1545 1545 1545 1545 1544 1544 1544 1544 1543 1542 1542 1542 1541 1541 1540 1539 1539 1538 1537 1537 1536 1535 1535 1534
1541 1542 1542 1542 1542 1543 1543 1543 1544 1544 1544 1544 1544 1544 1544 1544 1543 1543 1543 1543 1543 1543 1543 1543 1543 1543 1543 1542 1541 1540 1540 1539 1539 1538 1537 1537 1536 1535 1534 1533 1532 1531 1531
1539 1539 1540 1540 1540 1541 1542 1542 1542 1542 1542 1543 1543 1543 1543 1542 1542 1542 1542 1541 1541 1541 1542 1542 1541 1541 1541 1540 1540 1539 1538 1538 1537 1537 1536 1535 1534 1533 1532 1531 1530 1529 1528
1537 1537 1538 1539 1539 1539 1540 1541 1541 1540 1541 1541 1541 1541 1541 1541 1541 1541 1541 1540 1540 1540 1540 1540 1540 1540 1539 1539 1538 1538 1537 1536 1536 1536 1535 1534 1533 1532 1531 1530 1529 1527 1526
1536 1537 1537 1538 1538 1538 1539 1540 1540 1539 1540 1540 1540 1540 1541 1541 1540 1540 1540 1540 1540 1540 1539 1539 1539 1539 1538 1538 1538 1537 1536 1535 1534 1535 1534 1533 1532 1531 1530 1529 1528 1527 1525
1536 1536 1537 1537 1537 1538 1539 1539 1539 1539 1539 1540 1540 1540 1540 1540 1540 1539 1540 1540 1539 1539 1540 1540 1539 1539 1538 1537 1537 1536 1535 1535 1534 1535 1534 1533 1532 1531 1530 1529 1528 1527 1525
1535 1536 1537 1537 1537 1538 1539 1539 1539 1539 1539 1540 1540 1540 1540 1541 1541 1540 1540 1540 1540 1540 1540 1539 1539 1539 1539 1538 1537 1537 1536 1535 1535 1535 1534 1533 1532 1531 1531 1530 1528 1527 1525
1535 1536 1537 1538 1538 1539 1539 1539 1540 1540 1540 1540 1540 1541 1541 1541 1542 1541 1541 1541 1540 1541 1541 1540 1540 1539 1539 1538 1538 1537 1537 1535 1535 1535 1534 1533 1532 1531 1531 1530 1529 1527 1525
1536 1537 1537 1538 1539 1539 1540 1540 1541 1541 1540 1540 1541 1542 1542 1542 1543 1543 1542 1542 1541 1542 1542 1542 1541 1540 1540 1539 1539 1538 1537 1536 1535 1535 1535 1534 1533 1532 1531 1531 1529 1528 1526